This is the latest recevied weather packets stored in our database for station/object K7LDN-13. If no packets are shown the sender has not sent any weather packets the latest 1 day(s).
| Time | Temp. | Humidity | Pressure | Rain* | Wind** | Luminosity | Snow |
|---|---|---|---|---|---|---|---|
| 1836274808 | 20° C | 41% | 1020.3 hPa | 0 mm | 0.45 m/s, 284° | 0 W/m² | - |
| 1836274501 | 20° C | 39% | 1020.2 hPa | 0 mm | 0 m/s | 0 W/m² | - |
| 1836274359 | 20° C | 42% | 1020.4 hPa | 0 mm | 0 m/s | 0 W/m² | - |
| 1836274198 | 20.56° C | 40% | 1020.4 hPa | 0 mm | 0 m/s | 0 W/m² | - |
| 1836273892 | 20.56° C | 37% | 1020.4 hPa | 0 mm | 0 m/s | 0 W/m² | - |
| 1778048632 | 12.22° C | 56% | 1014.3 hPa | 0 mm | 0.89 m/s, 110° | 0 W/m² | - |
| 1778048328 | 11.67° C | 57% | 1014.3 hPa | 0 mm | 0.89 m/s, 326° | 0 W/m² | - |
| 1778048025 | 11.67° C | 58% | 1013.9 hPa | 0 mm | 0.89 m/s, 262° | 0 W/m² | - |
| 1778047723 | 11.67° C | 58% | 1014 hPa | 0 mm | 0 m/s | 0 W/m² | - |
| 1778047421 | 11.67° C | 59% | 1013.8 hPa | 0 mm | 0.89 m/s, 208° | 0 W/m² | - |
| 1778047117 | 12.22° C | 57% | 1013.9 hPa | 0 mm | 1.34 m/s, 124° | 0 W/m² | - |
| 1778046814 | 11.67° C | 57% | 1013.9 hPa | 0 mm | 1.34 m/s, 119° | 0 W/m² | - |
| 1778046511 | 12.22° C | 58% | 1014 hPa | 0 mm | 0.89 m/s, 87° | 0 W/m² | - |
| 1778046208 | 12.22° C | 56% | 1013.9 hPa | 0 mm | 2.68 m/s, 100° | 0 W/m² | - |
| 1778045904 | 12.22° C | 57% | 1013.5 hPa | 0 mm | 1.34 m/s, 36° | 0 W/m² | - |
| 1778045604 | 12.22° C | 57% | 1013.8 hPa | 0 mm | 2.24 m/s, 3° | 0 W/m² | - |
| 1778045301 | 12.22° C | 57% | 1013.4 hPa | 0 mm | 1.34 m/s, 161° | 0 W/m² | - |
| 1778045000 | 12.22° C | 58% | 1013.3 hPa | 0 mm | 2.68 m/s, 176° | 0 W/m² | - |
| 1778044697 | 11.67° C | 59% | 1013.2 hPa | 0 mm | 2.68 m/s, 166° | 0 W/m² | - |
| 1778044393 | 11.67° C | 60% | 1013.3 hPa | 0 mm | 2.68 m/s, 163° | 0 W/m² | - |
| 1778044091 | 11.67° C | 60% | 1013.1 hPa | 0 mm | 2.24 m/s, 174° | 0 W/m² | - |
| 1778043788 | 11.67° C | 60% | 1013 hPa | 0 mm | 2.24 m/s, 158° | 0 W/m² | - |
| 1778043484 | 11.67° C | 60% | 1012.8 hPa | 0 mm | 2.68 m/s, 175° | 0 W/m² | - |
| 1778043181 | 11.67° C | 60% | 1012.7 hPa | 0 mm | 3.13 m/s, 176° | 0 W/m² | - |
| 1778042878 | 11.67° C | 60% | 1013 hPa | 0 mm | 1.79 m/s, 161° | 0 W/m² | - |
* Rain latest hour (hover to see other rain measurements)
** Current wind speed in m/s (hover to see current wind gust speed)